Location: Rockford
(42.2710°N, 89.0940°W)
Time: 10:00:25
(UTC-05:00)

SPOT 5 - Visible Passes

Search period start: 25 August 2016 00:00
Search period end: 04 September 2016 00:00
Orbit: 623 x 816 km, 98.5° (Epoch: 25 August)

Date Brightness Start Highest point End Pass type
(mag) Time Alt. Az. Time Alt. Az. Time Alt. Az.
25 Aug 2.8 21:41:21 41° SSE 21:43:09 82° ENE 21:48:03 10° NNW visible
25 Aug 5.5 23:20:37 11° WSW 23:21:41 12° W 23:23:23 10° WNW visible
26 Aug 4.0 20:50:57 19° ESE 20:53:24 28° ENE 20:57:30 10° N visible
26 Aug 4.2 22:30:12 31° SW 22:31:20 35° W 22:35:48 10° NNW visible
27 Aug 2.8 21:39:47 46° SSE 21:41:17 78° ENE 21:46:07 10° N visible
27 Aug 5.5 23:19:02 12° W 23:19:47 12° W 23:21:38 10° WNW visible
28 Aug 4.0 20:49:22 20° ESE 20:51:32 27° ENE 20:55:30 10° N visible
28 Aug 4.1 22:28:37 34° WSW 22:29:27 36° W 22:33:53 10° NNW visible
29 Aug 2.8 21:38:12 51° SE 21:39:24 75° ENE 21:44:10 10° N visible
29 Aug 5.5 23:17:27 12° W 23:17:53 12° W 23:19:53 10° WNW visible
30 Aug 4.0 20:47:47 20° E 20:49:39 25° ENE 20:53:30 10° NNE visible
30 Aug 4.0 22:27:02 36° WSW 22:27:33 37° W 22:31:58 10° NNW visible
31 Aug 2.8 21:36:37 56° SE 21:37:32 71° ENE 21:42:13 10° N visible
31 Aug 5.4 23:15:52 13° W 23:15:58 13° W 23:18:05 10° WNW visible
01 Sep 4.1 20:46:12 20° E 20:47:47 24° ENE 20:51:30 10° NNE visible
01 Sep 3.9 22:25:27 38° WSW 22:25:39 39° W 22:30:04 10° NNW visible
02 Sep 2.8 21:35:02 60° ESE 21:35:38 68° ENE 21:40:16 10° N visible
02 Sep 5.4 23:14:17 13° W 23:14:17 13° W 23:16:17 10° WNW visible
03 Sep 4.1 20:44:37 20° E 20:45:54 23° ENE 20:49:29 10° NNE visible
03 Sep 3.9 22:23:52 40° W 22:23:52 40° W 22:28:08 10° NNW visible
